Airport Information

KCLM - William R Fairchild International Airport

KCLM 251153Z AUTO 00000KT 5SM BR CLR 01/01 A3005 RMK AO2 SLP176 I6000 T00110011 10039 20006 58026


  • General Information

  • Coordinates: N 48°7'12"/ W 123°30'0"
  • Location: N/A
  • Surveyed Elevation: 291 MSL

Operations

Flow Name Active Runways Conditions

Green background denotes normal operations.


Common Frequencies

Callsign Frequency Position Name

More at the Document Center


Charts